Weather in Kestel

Turkey     40°11′46″N   29°11′41″E
temp.,
°C
wind,
m/s
gust,
m/s
humid.,
%
clouds,
%
prec.,
mm/h
press.,
hPa
HPBL,
m
6 march, sat
sat600:00+8s11391 0.0 101923
03:00+7s11376 0.0 102023
06:00+7sse113692 0.0 102023
09:00+10sse114586 0.0 102023
12:00+14w2536100 0.0 10211282
15:00+13wsw6758100 0.1 10201252
18:00+9w3585100 2.4 1021487
21:00+7n3495100 10.0 1023310
7 march, sun
sun700:00+5n2394100 1.9 1025264
03:00+4ne2394100 4.6 1026330
06:00+4nne2292100 0.3 1026260
09:00+4ne228999 0.4 1026306
12:00+5ne2279100 0.1 1026549
15:00+5ne2280100 0.1 1024489
18:00+4ne128097 0.1 1023451
21:00+3e228888 0.1 102494
8 march, mon
mon800:00+2e228942 0.0 102381
03:00+1ese129024 0.0 102226
06:000se11880 0.0 102022
09:00+2sse00750 0.0 1020188
12:00+6nnw11520 0.0 1018753
15:00+9nw33460 0.0 1017820
18:00+7nw22580 0.0 1016448
21:00+3ssw11720 0.0 101723
9 march, tue
tue900:00+3ssw11640 0.0 101822
03:00+3s11500 0.0 101822
06:00+3se12451 0.0 101822
09:00+6ese224714 0.0 101988
12:00+10ene343861 0.0 1018621
15:00+12ene453974 0.0 10171008
18:00+10ene245392 0.0 1016432
21:00+6e347183 0.0 101884
10 march, wed
wed1000:00+5e347885 0.0 101898
03:00+4e238158 0.0 101750
06:00+3e338214 0.0 101758
09:00+5e35778 0.0 1016212
12:00+10ne325725 0.0 1015637
15:00+12n325462 0.0 1014951
18:00+8nne336791 0.0 1014460
21:00+5nne228296 0.1 1016425